{"data":{"norad_id":65136,"epoch":"2026-05-24T20:21:40.922784Z","epoch_age_seconds":94914,"freshness":"FRESH","line1":"1 65136U 25171E   26144.84839031  .00001864  00000+0  27338-3 0  9994","line2":"2 65136  51.9001 183.9481 0000285  66.9104 293.1889 14.79937554 44129","mean_motion":14.79937554,"eccentricity":2.85e-5,"inclination_deg":51.9001,"raan_deg":183.9481,"arg_perigee_deg":66.9104,"mean_anomaly_deg":293.1889,"bstar":0.00027338,"rev_number":4412,"period_min":97.301402759052,"perigee_km":629.32153510212,"apogee_km":629.72097162256,"semimajor_km":7007.6582533623,"source":"CELESTRAK","updated_at":"2026-05-25T13:38:05.164095Z"}}